GFSFLT1_700_rhum_282.txt.gz
RH
75 74 77 70 72 61 50 45 37 38 37 44 50 38 65 36 24 15 12 23 59 81 86 84 43 16 5 4 4 3 3 8 13
82 78 78 78 79 81 78 72 66 53 46 47 55 41 54 52 21 17 13 21 66 84 87 87 74 37 8 5 4 3 3 6 12
85 86 85 79 78 75 74 76 80 72 60 51 56 40 68 50 23 10 13 14 64 82 86 87 80 54 16 6 4 3 2 4 11
86 86 85 86 84 80 74 70 80 84 70 54 49 48 70 43 33 13 9 10 29 78 83 90 84 68 34 10 6 4 2 3 10
87 86 84 86 86 86 83 72 67 76 84 62 44 48 55 55 50 32 10 8 17 45 59 82 88 64 31 13 8 3 2 2 9
75 82 87 86 85 86 86 79 72 70 74 81 57 42 52 54 66 54 17 8 9 26 51 88 82 27 17 13 8 3 3 2 6
45 52 63 75 87 87 87 84 78 76 72 69 74 47 43 51 73 73 44 13 10 59 64 91 77 72 28 9 8 3 3 2 4
42 45 52 53 57 70 84 89 86 81 79 71 69 50 34 50 74 87 65 49 17 62 65 89 91 87 76 24 7 4 4 3 3
28 34 45 46 53 55 56 66 88 91 87 83 68 67 38 37 61 88 85 76 32 37 62 75 97 94 87 74 17 10 22 4 4
21 25 31 36 43 41 56 60 60 80 93 94 84 66 63 39 57 81 97 87 72 23 59 78 94 100 92 89 65 22 23 4 4
16 21 22 26 34 38 39 50 64 64 67 93 95 80 65 58 58 78 96 93 85 48 39 71 86 97 99 96 98 64 37 13 4
3 4 17 24 24 32 37 38 41 62 72 66 89 98 77 69 62 79 84 98 91 94 35 59 83 97 100 100 99 99 70 38 9
4 4 3 5 20 27 30 39 37 42 62 78 66 77 97 74 79 72 91 82 90 87 96 34 61 89 99 100 97 95 88 72 35
4 3 4 4 3 9 28 32 37 40 60 63 69 69 80 97 80 87 80 92 73 96 86 86 30 57 86 90 98 95 96 91 76
6 6 5 3 4 3 4 25 35 36 52 69 66 70 77 84 88 89 90 86 79 71 92 94 46 22 62 99 98 99 98 98 90
8 8 8 6 4 4 3 4 21 39 41 51 78 64 69 89 94 94 99 99 95 90 99 90 77 18 21 66 95 88 95 99 86
11 10 10 9 7 5 4 4 5 20 42 44 52 74 68 63 76 74 84 86 87 88 90 84 97 32 16 17 80 95 98 97 98
14 14 12 11 9 8 6 5 5 6 25 45 47 62 85 87 65 99 92 95 88 89 95 85 89 58 21 12 23 81 93 97 95
19 17 15 14 13 11 9 7 6 8 10 32 48 50 68 100 100 92 88 100 83 92 98 96 89 77 45 14 11 88 90 98 93
22 23 20 18 16 14 13 11 8 8 12 15 38 50 66 100 97 98 100 100 100 98 98 98 98 77 78 30 13 36 94 98 92

GFSFLT1_700_rhum_288.txt.gz
RH
86 83 84 82 76 62 65 53 48 52 45 42 46 58 48 59 65 58 17 11 54 84 92 74 19 31 52 27 14 3 8 12 12
87 84 82 84 82 82 82 82 74 69 74 63 66 57 50 52 69 53 42 13 35 80 91 90 75 48 35 28 10 3 4 11 13
88 89 84 83 85 86 84 84 87 89 88 86 80 78 75 59 62 50 52 20 16 77 87 94 89 83 61 32 7 3 3 8 13
80 82 84 87 88 85 84 86 87 84 85 84 83 84 82 68 56 51 55 26 13 43 83 98 96 96 80 63 17 4 3 5 12
24 45 68 76 84 87 88 84 84 85 87 85 79 76 82 80 63 48 60 38 12 19 80 92 100 93 92 80 48 8 4 3 11
21 21 22 34 60 75 82 85 86 87 87 90 86 80 72 75 82 54 50 52 28 10 61 94 99 99 96 86 66 35 5 3 8
17 18 18 20 23 29 47 65 80 88 88 87 87 86 80 71 75 78 48 55 47 20 18 80 97 99 94 74 73 41 11 3 4
4 7 12 16 18 20 23 26 40 60 72 85 88 85 85 79 74 72 70 52 56 48 14 14 66 85 80 70 75 24 15 5 3
3 2 2 3 7 14 18 20 24 27 38 53 65 82 84 83 78 74 66 61 57 66 42 11 17 48 68 65 80 30 13 6 3
2 2 3 3 2 2 5 12 17 21 24 27 35 50 65 80 81 76 73 69 53 68 72 30 29 32 49 58 83 69 20 8 7
2 2 2 2 2 2 3 3 4 12 18 22 25 26 40 52 66 78 76 72 66 55 82 73 37 46 40 68 84 85 74 20 11
1 1 1 1 1 1 1 2 3 3 5 15 20 24 25 33 46 54 77 75 72 52 72 88 62 52 72 73 89 90 87 64 12
1 1 1 1 1 1 1 1 1 2 3 3 10 18 22 26 31 46 50 73 77 71 51 92 89 52 59 85 88 99 100 83 50
3 2 2 1 1 1 1 1 1 1 1 3 3 5 16 22 29 30 45 53 73 79 65 62 96 90 50 63 87 96 100 90 79
8 8 6 4 3 2 1 1 2 1 1 1 2 3 3 13 22 29 32 44 54 81 78 60 77 97 94 51 68 88 96 98 89
10 11 10 9 8 5 4 2 2 3 3 1 1 2 3 3 13 23 32 40 52 57 89 71 66 80 98 91 54 58 89 100 99
13 12 10 9 9 9 8 6 5 5 6 4 3 1 2 3 4 18 27 40 61 63 87 95 73 74 81 94 98 80 61 81 96
11 12 12 13 11 8 6 7 7 7 8 8 6 3 2 2 3 6 24 32 46 82 82 98 85 73 84 85 92 95 84 56 60
18 20 18 17 15 13 12 10 7 6 8 10 9 7 5 3 2 4 10 31 36 58 80 85 99 91 81 86 79 90 90 90 66
26 25 23 22 21 19 17 14 13 12 10 13 12 10 8 6 5 2 6 23 33 53 79 98 79 99 96 93 94 81 94 94 90

GFSFLT1_700_rhum_291.txt.gz
RH
81 80 79 75 79 82 74 59 62 59 54 57 40 45 64 76 49 72 57 14 24 77 78 39 11 20 59 44 10 4 9 12 13
84 83 79 79 79 80 79 78 80 76 72 70 77 66 64 62 56 62 59 44 13 77 94 91 70 32 28 49 18 7 5 11 13
86 82 87 82 80 80 80 82 82 80 81 84 86 84 83 80 78 60 61 53 25 31 92 100 96 85 64 41 31 12 3 9 13
47 81 85 83 82 81 83 82 78 82 86 83 81 78 77 75 82 78 55 53 46 13 60 95 99 92 89 76 46 15 3 5 12
22 21 29 48 68 76 82 85 81 82 82 81 82 80 78 73 70 78 70 51 58 22 12 68 97 100 87 88 74 37 4 3 8
19 19 19 20 21 25 46 76 84 87 84 84 83 82 77 75 70 64 76 62 54 47 12 20 83 94 100 93 88 71 27 4 5
6 8 12 16 16 18 20 22 34 60 76 83 84 84 82 74 71 70 63 73 53 56 30 10 56 98 99 86 92 79 58 18 4
3 3 3 3 5 10 15 17 19 22 30 51 71 81 83 81 76 72 69 59 73 53 49 21 16 80 100 99 97 79 65 38 9
3 3 3 3 3 3 3 4 10 16 18 22 28 44 66 80 79 76 74 66 60 69 53 49 34 47 93 100 93 83 71 46 18
2 2 2 2 2 2 2 2 2 3 6 15 18 23 27 42 63 74 76 74 67 65 70 56 53 36 34 66 83 82 72 65 18
3 2 2 2 2 2 2 2 2 2 2 2 6 15 19 24 28 45 64 75 74 67 65 68 58 60 42 33 51 72 71 78 24
2 2 2 2 2 2 1 1 1 1 1 1 2 2 6 15 21 23 32 52 71 71 70 68 63 65 67 45 37 48 69 84 55
2 1 1 1 1 1 1 1 1 1 1 1 1 1 2 3 9 18 23 28 47 66 74 74 72 62 75 66 51 42 54 88 81
1 1 1 1 1 1 1 1 1 1 1 1 1 1 1 2 2 5 16 22 29 45 66 82 75 66 65 84 58 61 68 93 93
2 3 3 2 2 1 1 1 1 1 1 1 1 1 1 1 1 2 4 16 25 36 50 69 88 76 64 76 85 61 75 83 89
3 3 4 5 7 7 7 4 2 1 1 1 1 1 1 1 1 1 3 5 19 32 41 59 86 94 70 68 84 87 58 80 90
7 9 10 11 10 10 9 9 8 7 4 2 2 1 1 2 1 1 1 3 10 22 37 51 68 96 97 64 68 88 88 60 85
13 12 11 10 10 9 9 10 9 8 7 7 6 4 2 2 3 2 2 2 3 8 23 37 51 88 99 89 65 70 93 90 66
12 11 10 9 9 13 16 16 14 12 10 9 9 7 6 5 2 4 3 3 2 3 14 31 50 67 67 99 90 70 73 97 77
11 14 17 19 20 21 20 20 18 16 13 12 11 11 10 7 6 4 4 4 3 2 4 20 39 72 74 97 95 82 77 76 99

GFSFLT1_700_rhum_294.txt.gz
RH
81 80 78 76 74 74 78 80 73 63 60 57 52 59 47 54 65 55 55 54 12 65 73 10 6 12 50 63 19 6 9 12 13
79 75 75 79 80 78 80 79 77 77 78 77 70 69 68 70 64 74 61 59 37 20 79 90 63 19 20 59 46 12 6 11 13
49 78 78 73 78 84 85 84 82 81 79 77 76 77 76 76 75 76 80 60 56 28 23 88 94 81 41 32 50 29 10 8 13
21 21 40 72 73 75 86 86 86 86 84 82 79 74 73 74 71 69 75 77 59 54 17 47 95 93 89 68 42 36 17 4 11
19 19 20 23 26 49 71 77 77 82 83 85 83 79 78 70 68 66 67 68 75 55 51 14 62 97 89 89 82 50 56 6 6
15 17 18 18 18 20 20 24 34 57 66 78 83 82 82 75 70 69 68 63 63 71 53 41 13 64 95 100 90 88 55 59 5
4 4 5 8 11 15 17 18 18 21 26 34 53 62 71 76 76 73 70 64 61 65 63 54 31 15 72 95 98 97 83 59 48
3 3 3 3 3 3 3 5 10 16 18 20 23 27 40 50 62 71 75 69 67 63 70 58 51 27 16 86 97 96 88 71 64
4 3 3 3 3 3 3 3 3 3 4 9 17 20 21 22 32 51 66 72 69 72 66 71 58 50 28 26 96 97 95 85 70
3 3 3 3 3 3 2 2 2 2 2 2 3 5 13 19 19 19 40 67 68 69 76 69 75 59 50 39 62 86 94 88 69
4 3 3 3 3 4 3 3 3 3 2 2 2 2 2 4 8 16 19 27 57 63 70 78 72 77 63 55 47 48 77 86 75
5 4 4 4 3 3 3 3 3 2 2 2 2 2 2 2 2 3 8 19 25 47 59 73 76 76 84 66 61 53 41 57 72
4 4 4 4 4 4 3 3 3 3 2 2 2 2 2 2 2 2 2 5 16 24 40 58 77 73 76 78 69 65 61 45 42
3 2 2 2 2 2 2 2 2 2 2 2 2 1 1 1 1 1 1 2 3 15 24 36 56 79 77 76 76 70 69 63 48
2 1 1 1 1 1 1 1 1 1 1 1 1 1 1 1 1 1 1 1 2 2 13 27 36 60 83 79 77 81 71 74 65
1 1 1 1 1 1 1 1 1 1 1 1 1 1 1 1 1 1 1 1 1 1 2 12 24 34 61 87 85 78 76 73 79
1 1 1 1 1 2 3 4 5 5 5 3 2 1 1 1 1 1 1 1 1 1 1 2 10 25 36 61 92 88 79 79 78
2 3 3 4 5 5 6 6 6 6 7 7 7 5 4 2 1 1 1 2 2 1 1 1 2 13 32 46 74 99 83 79 84
5 6 7 8 8 8 8 8 8 8 8 10 10 10 8 7 3 2 4 3 3 2 1 1 2 4 21 46 68 99 100 76 82
11 11 10 10 10 11 14 14 15 16 14 13 13 13 11 11 9 5 4 4 5 4 3 2 2 2 12 36 67 80 98 98 71